FW0878 Weather Reports


Display with metric or nautical units.
time (UTC)temp
F
wind
direction
speed
MPH
gust
MPH
rain 1hr
in
rain 24hr
in
rain mn
in
humidity
%
barometer
mb
20221201073349 63 0.0 0.0 0.00 0.00 0.00 64 1017.9
20221201064321 64 0.0 0.0 0.00 0.00 0.00 64 1017.9
20221201063319 64 0.0 0.0 0.00 0.00 0.00 64 1017.9
20221201062318 65 0.0 0.0 0.00 0.00 0.00 64 1017.9
20221201061316 65 0.0 0.0 0.00 0.00 0.00 64 1017.9
20221201060314 65 0.0 0.0 0.00 0.00 0.00 64 1017.9
20221201055312 65 0.0 0.0 0.00 0.00 0.00 64 1017.6
20221201053602 65 0.0 0.0 0.00 0.00 0.00 65 1017.6
20221201051610 65 0.0 0.0 0.00 0.00 0.00 64 1017.6
20221201050609 66 0.0 0.0 0.00 0.00 0.00 65 1017.6
20221201045607 65 0.0 0.0 0.00 0.00 0.00 65 1017.6
20221201044606 66 0.0 0.0 0.00 0.00 0.00 66 1017.9
20221201043604 65 0.0 0.0 0.00 0.00 0.00 67 1017.6
20221201042432 65 0.0 0.0 0.00 0.00 0.00 66 1017.6
20221201041430 66 0.0 0.0 0.00 0.00 0.00 66 1017.9
20221201040357 66 0.0 0.0 0.00 0.00 0.00 67 1017.6
20221201034857 65 0.0 0.0 0.00 0.00 0.00 66 1017.6
20221201032106 66 0.0 0.0 0.00 0.00 0.00 67 1017.6
20221201024931 65 0.0 0.0 0.00 0.00 0.00 67 1017.9
20221201023719 65 0.0 0.0 0.00 0.00 0.00 69 1017.9
20221201022646 65 0.0 0.0 0.00 0.00 0.00 70 1017.9
20221201021612 65 0.0 0.0 0.00 0.00 0.00 70 1017.9
20221201020611 64 0.0 0.0 0.00 0.00 0.00 69 1017.9
20221201015005 64 0.0 0.0 0.00 0.00 0.00 70 1018.3
20221201010719 63 0.0 0.0 0.00 0.00 0.00 74 1018.6
20221201005717 63 0.0 0.0 0.00 0.00 0.00 74 1018.6
20221201004644 63 0.0 0.0 0.00 0.00 0.00 72 1018.6
20221201003539 64 0.0 0.0 0.00 0.00 0.00 71 1018.6
20221201002537 64 0.0 0.0 0.00 0.00 0.00 70 1019.0
20221201001535 64 0.0 0.0 0.00 0.00 0.00 70 1019.0
20221201000533 63 0.0 0.0 0.00 0.00 0.00 72 1019.0
20221130235532 62 0.0 0.0 0.00 0.00 0.00 72 1019.0
20221130234032 62 0.0 0.0 0.00 0.00 0.00 72 1019.0
20221130232606 63 0.0 0.0 0.00 0.00 0.00 71 1019.0
20221130230617 63 0.0 0.0 0.00 0.00 0.00 71 1019.0
20221130225310 62 0.0 0.0 0.00 0.00 0.00 74 1019.3
20221130224309 61 0.0 0.0 0.00 0.00 0.00 77 1019.3
20221130223236 60 0.0 0.0 0.00 0.00 0.00 79 1019.6
20221130221625 60 0.0 0.0 0.00 0.00 0.00 79 1019.6
20221130220623 61 0.0 0.0 0.00 0.00 0.00 78 1019.6
20221130215622 61 0.0 0.0 0.00 0.00 0.00 77 1019.6
20221130214620 62 0.0 0.0 0.00 0.00 0.00 78 1019.6
20221130213618 61 0.0 0.0 0.00 0.00 0.00 81 1019.6
20221130212617 60 0.0 0.0 0.00 0.00 0.00 84 1019.6
20221130211615 60 0.0 0.0 0.00 0.00 0.00 84 1019.6
20221130210542 60 0.0 0.0 0.00 0.00 0.00 84 1019.6
20221130205540 60 0.0 0.0 0.00 0.00 0.00 85 1019.6
20221130204538 59 0.0 0.0 0.00 0.00 0.00 86 1019.3
20221130203536 59 0.0 0.0 0.00 0.00 0.00 87 1019.3
20221130202432 59 0.0 0.0 0.00 0.00 0.00 87 1019.3
20221130201430 58 0.0 0.0 0.00 0.00 0.00 87 1019.3
20221130200428 58 0.0 0.0 0.00 0.00 0.00 87 1019.3
20221130195426 58 0.0 0.0 0.00 0.00 0.00 87 1019.0
20221130194353 58 0.0 0.0 0.00 0.00 0.00 87 1019.3
20221130193351 58 0.0 0.0 0.00 0.00 0.00 87 1019.0
20221130192318 57 0.0 0.0 0.00 0.00 0.00 88 1019.0
20221130191316 57 0.0 0.0 0.00 0.00 0.00 88 1019.0
20221130190314 57 0.0 0.0 0.00 0.00 0.00 87 1019.0
20221130185313 58 0.0 0.0 0.00 0.00 0.00 87 1019.0
20221130184311 57 0.0 0.0 0.00 0.00 0.00 87 1019.0
20221130183309 57 0.0 0.0 0.00 0.00 0.00 87 1018.6
20221130182308 57 0.0 0.0 0.00 0.00 0.00 87 1018.6
20221130181306 57 0.0 0.0 0.00 0.00 0.00 87 1018.6
20221130180304 56 0.0 0.0 0.00 0.00 0.00 87 1018.6
20221130175305 56 0.0 0.0 0.00 0.00 0.00 87 1018.6
20221130174301 56 0.0 0.0 0.00 0.00 0.00 87 1018.6
20221130173259 55 0.0 0.0 0.00 0.00 0.00 87 1018.6
20221130172257 55 0.0 0.0 0.00 0.00 0.00 87 1018.6
20221130171256 55 0.0 0.0 0.00 0.00 0.00 87 1018.6
20221130170223 55 0.0 0.0 0.00 0.00 0.00 87 1018.6
20221130165149 55 0.0 0.0 0.00 0.00 0.00 87 1018.3
20221130164147 54 0.0 0.0 0.00 0.00 0.00 86 1018.6
20221130163145 54 0.0 0.0 0.00 0.00 0.00 86 1018.6
20221130162143 54 0.0 0.0 0.00 0.00 0.00 86 1018.6
20221130161142 54 0.0 0.0 0.00 0.00 0.00 86 1019.0
20221130160140 55 0.0 0.0 0.00 0.00 0.00 86 1018.6
20221130155138 55 0.0 0.0 0.00 0.00 0.00 85 1018.6
20221130154137 55 0.0 0.0 0.00 0.00 0.00 85 1018.3
20221130153135 55 0.0 0.0 0.00 0.00 0.00 85 1018.6
20221130152134 55 0.0 0.0 0.00 0.00 0.00 85 1018.6
20221130150632 55 0.0 0.0 0.00 0.00 0.00 84 1018.6
20221130143050 57 0.0 0.0 0.00 0.00 0.00 84 1019.0
20221130142048 57 0.0 0.0 0.00 0.00 0.00 83 1019.0
20221130141046 57 0.0 0.0 0.00 0.00 0.00 83 1019.0
20221130140013 57 0.0 0.0 0.00 0.00 0.00 83 1019.0
20221130135012 57 0.0 0.0 0.00 0.00 0.00 83 1019.0
20221130134010 57 0.0 0.0 0.00 0.00 0.00 83 1019.3
20221130133009 57 0.0 0.0 0.00 0.00 0.00 82 1019.3
20221130131126 57 0.0 0.0 0.00 0.00 0.00 82 1019.6
20221130130125 58 0.0 0.0 0.00 0.00 0.00 82 1019.6
20221130125123 58 0.0 0.0 0.00 0.00 0.00 82 1019.6
20221130124122 58 0.0 0.0 0.00 0.00 0.00 82 1019.6
20221130123120 58 0.0 0.0 0.00 0.00 0.00 82 1019.6
20221130122119 57 0.0 0.0 0.00 0.00 0.00 81 1019.6
20221130121117 57 0.0 0.0 0.00 0.00 0.00 81 1019.6
20221130120116 57 0.0 0.0 0.00 0.00 0.00 81 1019.6
20221130114909 57 0.0 0.0 0.00 0.00 0.00 81 1019.6
20221130113907 57 0.0 0.0 0.00 0.00 0.00 81 1019.6
20221130112905 57 0.0 0.0 0.00 0.00 0.00 80 1019.6
20221130111904 58 0.0 0.0 0.00 0.00 0.00 80 1019.6
20221130110902 58 0.0 0.0 0.00 0.00 0.00 79 1019.6
20221130105900 58 0.0 0.0 0.00 0.00 0.00 79 1019.6
20221130104859 58 0.0 0.0 0.00 0.00 0.00 79 1019.6
20221130103857 58 0.0 0.0 0.00 0.00 0.00 78 1019.6
20221130102856 59 0.0 0.0 0.00 0.00 0.00 77 1019.3
20221130101853 59 0.0 0.0 0.00 0.00 0.00 76 1019.3
20221130100821 59 0.0 0.0 0.00 0.00 0.00 75 1019.3
20221130095819 59 0.0 0.0 0.00 0.00 0.00 75 1019.3
20221130094345 60 0.0 0.0 0.00 0.00 0.00 75 1019.0
20221130093344 60 0.0 0.0 0.00 0.00 0.00 75 1019.0
20221130092239 60 0.0 0.0 0.00 0.00 0.00 74 1019.0
20221130091134 60 0.0 0.0 0.00 0.00 0.00 74 1019.0
20221130090133 60 0.0 0.0 0.00 0.00 0.00 73 1019.0
20221130085130 61 0.0 0.0 0.00 0.00 0.00 72 1018.6
20221130084129 61 0.0 0.0 0.00 0.00 0.00 72 1018.6
20221130083127 61 0.0 0.0 0.00 0.00 0.00 72 1018.3
20221130082125 61 0.0 0.0 0.00 0.00 0.00 71 1018.6
20221130081124 61 0.0 0.0 0.00 0.00 0.00 71 1018.3
20221130080019 61 0.0 0.0 0.00 0.00 0.00 71 1018.3
20221130074135 62 0.0 0.0 0.00 0.00 0.00 71 1017.9